timestamp,wind_dir_avg,wind_spd_max_dir,wind_spd_avg,wind_spd_gust,battery_voltage,lat,long
2018-03-19 00:00:00+00:00,279.0,280.0,15.55,18.71,,47.59359,-54.27349
2018-03-19 00:10:00+00:00,283.0,285.0,13.16,16.82,,47.59359,-54.27349
2018-03-19 00:20:00+00:00,286.0,296.0,11.89,15.62,,47.59359,-54.27349
2018-03-19 00:30:00+00:00,280.0,288.0,11.73,14.93,,47.59359,-54.27349
2018-03-19 00:40:00+00:00,289.0,298.0,15.68,18.88,,47.59359,-54.27349
2018-03-19 00:50:00+00:00,274.0,282.0,13.81,15.86,,47.59359,-54.27349
2018-03-19 01:00:00+00:00,285.0,297.0,13.53,16.51,,47.59359,-54.27349
2018-03-19 01:10:00+00:00,286.0,291.0,15.55,19.43,,47.59359,-54.27349
2018-03-19 01:20:00+00:00,280.0,275.0,13.26,15.39,,47.59359,-54.27349
2018-03-19 01:30:00+00:00,270.0,271.0,13.16,15.05,,47.59359,-54.27349
2018-03-19 01:40:00+00:00,274.0,283.0,14.62,18.22,,47.59359,-54.27349
2018-03-19 01:50:00+00:00,278.0,280.0,16.22,19.36,,47.59359,-54.27349
2018-03-19 02:00:00+00:00,273.0,266.0,14.46,16.75,,47.59359,-54.27349
2018-03-19 02:10:00+00:00,275.0,280.0,14.19,16.69,,47.59359,-54.27349
2018-03-19 02:20:00+00:00,269.0,270.0,13.81,16.37,,47.59359,-54.27349
2018-03-19 02:30:00+00:00,271.0,271.0,15.1,16.81,,47.59359,-54.27349
2018-03-19 02:40:00+00:00,271.0,267.0,14.92,17.54,,47.59359,-54.27349
2018-03-19 02:50:00+00:00,271.0,269.0,15.49,17.27,,47.59359,-54.27349
2018-03-19 03:00:00+00:00,277.0,277.0,14.21,16.81,,47.59359,-54.27349
2018-03-19 03:10:00+00:00,273.0,273.0,14.25,16.7,,47.59359,-54.27349
2018-03-19 03:20:00+00:00,276.0,271.0,13.73,15.93,,47.59359,-54.27349
2018-03-19 03:30:00+00:00,274.0,271.0,12.51,15.85,,47.59359,-54.27349
2018-03-19 03:40:00+00:00,272.0,269.0,12.75,14.19,,47.59359,-54.27349
2018-03-19 03:50:00+00:00,277.0,276.0,12.33,14.0,,47.59359,-54.27349
2018-03-19 04:00:00+00:00,271.0,269.0,13.89,15.97,,47.59359,-54.27349
2018-03-19 04:10:00+00:00,268.0,264.0,14.14,16.14,,47.59359,-54.27349
2018-03-19 04:20:00+00:00,269.0,267.0,13.31,15.35,,47.59359,-54.27349
2018-03-19 04:30:00+00:00,266.0,259.0,13.09,15.72,,47.59359,-54.27349
2018-03-19 04:40:00+00:00,266.0,268.0,13.34,15.9,,47.59359,-54.27349
2018-03-19 04:50:00+00:00,266.0,270.0,14.94,18.37,,47.59359,-54.27349
2018-03-19 05:00:00+00:00,269.0,267.0,15.25,18.71,,47.59359,-54.27349
2018-03-19 05:10:00+00:00,271.0,270.0,14.92,17.63,,47.59359,-54.27349
2018-03-19 05:20:00+00:00,273.0,273.0,15.26,19.52,,47.59359,-54.27349
2018-03-19 05:30:00+00:00,264.0,265.0,15.4,17.06,,47.59359,-54.27349
2018-03-19 05:40:00+00:00,268.0,272.0,14.65,17.14,,47.59359,-54.27349
2018-03-19 05:50:00+00:00,265.0,268.0,15.57,20.42,,47.59359,-54.27349
2018-03-19 06:00:00+00:00,268.0,261.0,15.07,18.23,,47.59359,-54.27349
2018-03-19 06:10:00+00:00,267.0,268.0,15.24,18.81,,47.59359,-54.27349
2018-03-19 06:20:00+00:00,267.0,272.0,15.06,16.58,,47.59359,-54.27349
2018-03-19 06:30:00+00:00,270.0,268.0,14.47,16.85,,47.59359,-54.27349
2018-03-19 06:40:00+00:00,265.0,268.0,15.07,16.72,,47.59359,-54.27349
2018-03-19 06:50:00+00:00,267.0,263.0,12.85,15.01,,47.59359,-54.27349
2018-03-19 07:00:00+00:00,263.0,267.0,15.09,17.16,,47.59359,-54.27349
2018-03-19 07:10:00+00:00,268.0,266.0,12.03,13.5,,47.59359,-54.27349
2018-03-19 07:20:00+00:00,265.0,266.0,14.13,16.5,,47.59359,-54.27349
2018-03-19 07:30:00+00:00,267.0,265.0,13.99,16.36,,47.59359,-54.27349
2018-03-19 07:40:00+00:00,265.0,268.0,13.43,15.51,,47.59359,-54.27349
2018-03-19 07:50:00+00:00,267.0,267.0,16.18,20.6,,47.59359,-54.27349
2018-03-19 08:00:00+00:00,271.0,271.0,14.28,15.67,,47.59359,-54.27349
2018-03-19 08:10:00+00:00,268.0,268.0,15.52,16.9,,47.59359,-54.27349
2018-03-19 08:20:00+00:00,267.0,266.0,13.71,16.74,,47.59359,-54.27349
2018-03-19 08:30:00+00:00,267.0,272.0,15.7,18.28,,47.59359,-54.27349
2018-03-19 08:40:00+00:00,266.0,259.0,14.55,17.83,,47.59359,-54.27349
2018-03-19 08:50:00+00:00,266.0,266.0,16.93,21.49,,47.59359,-54.27349
2018-03-19 09:00:00+00:00,265.0,262.0,15.59,19.68,,47.59359,-54.27349
2018-03-19 09:10:00+00:00,258.0,257.0,16.91,22.48,,47.59359,-54.27349
2018-03-19 09:20:00+00:00,262.0,262.0,15.38,19.3,,47.59359,-54.27349
2018-03-19 09:30:00+00:00,260.0,263.0,14.34,16.59,,47.59359,-54.27349
2018-03-19 09:40:00+00:00,261.0,262.0,14.07,16.29,,47.59359,-54.27349
2018-03-19 09:50:00+00:00,263.0,260.0,15.67,20.01,,47.59359,-54.27349
2018-03-19 10:00:00+00:00,261.0,256.0,14.32,16.33,,47.59359,-54.27349
2018-03-19 10:10:00+00:00,264.0,267.0,14.48,16.75,,47.59359,-54.27349
2018-03-19 10:20:00+00:00,265.0,264.0,13.83,16.21,,47.59359,-54.27349
2018-03-19 10:30:00+00:00,272.0,278.0,14.7,16.76,,47.59359,-54.27349
2018-03-19 10:40:00+00:00,261.0,261.0,13.66,15.4,,47.59359,-54.27349
2018-03-19 10:50:00+00:00,261.0,266.0,14.24,17.18,,47.59359,-54.27349
2018-03-19 11:00:00+00:00,263.0,264.0,13.15,15.17,,47.59359,-54.27349
2018-03-19 11:10:00+00:00,262.0,261.0,13.6,15.67,,47.59359,-54.27349
2018-03-19 11:20:00+00:00,258.0,260.0,13.72,15.41,,47.59359,-54.27349
2018-03-19 11:30:00+00:00,260.0,263.0,13.62,16.07,,47.59359,-54.27349
2018-03-19 11:40:00+00:00,256.0,252.0,14.12,16.3,,47.59359,-54.27349
2018-03-19 11:50:00+00:00,262.0,262.0,14.09,16.0,,47.59359,-54.27349
2018-03-19 12:00:00+00:00,252.0,254.0,14.08,15.97,,47.59359,-54.27349
2018-03-19 12:10:00+00:00,258.0,264.0,13.42,15.83,,47.59359,-54.27349
2018-03-19 12:20:00+00:00,259.0,257.0,12.92,14.92,,47.59359,-54.27349
2018-03-19 12:30:00+00:00,255.0,250.0,13.14,15.33,,47.59359,-54.27349
2018-03-19 12:40:00+00:00,256.0,255.0,13.46,15.29,,47.59359,-54.27349
2018-03-19 12:50:00+00:00,260.0,262.0,12.59,13.71,,47.59359,-54.27349
2018-03-19 13:00:00+00:00,251.0,248.0,13.64,16.2,,47.59359,-54.27349
2018-03-19 13:10:00+00:00,257.0,257.0,12.72,15.28,,47.59359,-54.27349
2018-03-19 13:20:00+00:00,250.0,253.0,11.56,15.41,,47.59359,-54.27349
2018-03-19 13:30:00+00:00,254.0,252.0,13.09,15.59,,47.59359,-54.27349
2018-03-19 13:40:00+00:00,251.0,254.0,13.89,15.6,,47.59359,-54.27349
2018-03-19 13:50:00+00:00,252.0,249.0,13.61,15.97,,47.59359,-54.27349
2018-03-19 14:00:00+00:00,248.0,248.0,12.89,14.85,,47.59359,-54.27349
2018-03-19 14:10:00+00:00,244.0,242.0,11.81,15.32,,47.59359,-54.27349
2018-03-19 14:20:00+00:00,249.0,247.0,12.25,14.47,,47.59359,-54.27349
2018-03-19 14:30:00+00:00,242.0,234.0,13.39,16.04,,47.59359,-54.27349
2018-03-19 14:40:00+00:00,244.0,255.0,11.85,14.88,,47.59359,-54.27349
2018-03-19 14:50:00+00:00,244.0,248.0,12.04,14.32,,47.59359,-54.27349
2018-03-19 15:00:00+00:00,245.0,245.0,13.6,15.7,,47.59359,-54.27349
2018-03-19 15:10:00+00:00,244.0,260.0,12.46,14.5,,47.59359,-54.27349
2018-03-19 15:20:00+00:00,241.0,234.0,13.3,15.88,,47.59359,-54.27349
2018-03-19 15:30:00+00:00,244.0,243.0,12.61,15.71,,47.59359,-54.27349
2018-03-19 15:40:00+00:00,247.0,251.0,13.9,15.41,,47.59359,-54.27349
2018-03-19 15:50:00+00:00,248.0,243.0,13.5,15.61,,47.59359,-54.27349
2018-03-19 16:00:00+00:00,248.0,251.0,14.0,17.56,,47.59359,-54.27349
2018-03-19 16:10:00+00:00,245.0,246.0,13.53,15.12,,47.59359,-54.27349
2018-03-19 16:20:00+00:00,248.0,252.0,14.47,16.04,,47.59359,-54.27349
2018-03-19 16:30:00+00:00,247.0,248.0,14.48,17.33,,47.59359,-54.27349
2018-03-19 16:40:00+00:00,247.0,243.0,14.44,16.67,,47.59359,-54.27349
2018-03-19 16:50:00+00:00,247.0,250.0,13.24,14.71,,47.59359,-54.27349
2018-03-19 17:00:00+00:00,245.0,243.0,13.58,15.86,,47.59359,-54.27349
2018-03-19 17:10:00+00:00,246.0,241.0,14.61,16.45,,47.59359,-54.27349
2018-03-19 17:20:00+00:00,251.0,246.0,13.69,16.31,,47.59359,-54.27349
2018-03-19 17:30:00+00:00,246.0,242.0,14.68,16.84,,47.59359,-54.27349
2018-03-19 17:40:00+00:00,244.0,242.0,13.27,16.43,,47.59359,-54.27349
2018-03-19 17:50:00+00:00,246.0,245.0,13.38,15.23,,47.59359,-54.27349
2018-03-19 18:00:00+00:00,248.0,244.0,13.15,14.98,,47.59359,-54.27349
2018-03-19 18:10:00+00:00,251.0,248.0,12.76,14.55,,47.59359,-54.27349
2018-03-19 18:20:00+00:00,253.0,255.0,12.41,14.68,,47.59359,-54.27349
2018-03-19 18:30:00+00:00,253.0,252.0,13.48,15.61,,47.59359,-54.27349
2018-03-19 18:40:00+00:00,245.0,248.0,12.24,16.08,,47.59359,-54.27349
2018-03-19 18:50:00+00:00,258.0,257.0,10.84,13.86,,47.59359,-54.27349
2018-03-19 19:00:00+00:00,257.0,259.0,13.49,15.54,,47.59359,-54.27349
2018-03-19 19:10:00+00:00,246.0,251.0,9.17,13.52,,47.59359,-54.27349
2018-03-19 19:20:00+00:00,257.0,259.0,12.03,14.49,,47.59359,-54.27349
2018-03-19 19:30:00+00:00,254.0,254.0,13.59,15.11,,47.59359,-54.27349
2018-03-19 19:40:00+00:00,260.0,257.0,13.09,15.07,,47.59359,-54.27349
2018-03-19 19:50:00+00:00,260.0,259.0,12.43,14.7,,47.59359,-54.27349
2018-03-19 20:00:00+00:00,257.0,258.0,13.46,15.23,,47.59359,-54.27349
2018-03-19 20:10:00+00:00,259.0,257.0,12.68,13.86,,47.59359,-54.27349
2018-03-19 20:20:00+00:00,258.0,258.0,11.87,14.27,,47.59359,-54.27349
2018-03-19 20:30:00+00:00,247.0,252.0,10.28,13.94,,47.59359,-54.27349
2018-03-19 20:40:00+00:00,248.0,254.0,11.1,15.46,,47.59359,-54.27349
2018-03-19 20:50:00+00:00,249.0,250.0,13.2,16.34,,47.59359,-54.27349
2018-03-19 21:00:00+00:00,253.0,254.0,11.15,15.44,,47.59359,-54.27349
2018-03-19 21:10:00+00:00,256.0,252.0,13.37,15.72,,47.59359,-54.27349
2018-03-19 21:20:00+00:00,249.0,254.0,12.39,16.02,,47.59359,-54.27349
2018-03-19 21:30:00+00:00,252.0,255.0,10.05,14.91,,47.59359,-54.27349
2018-03-19 21:40:00+00:00,257.0,258.0,12.62,15.24,,47.59359,-54.27349
2018-03-19 21:50:00+00:00,256.0,254.0,10.86,14.28,,47.59359,-54.27349
2018-03-19 22:00:00+00:00,263.0,258.0,11.24,15.5,,47.59359,-54.27349
2018-03-19 22:10:00+00:00,256.0,254.0,12.9,15.57,,47.59359,-54.27349
2018-03-19 22:20:00+00:00,260.0,260.0,10.04,11.23,,47.59359,-54.27349
2018-03-19 22:30:00+00:00,260.0,260.0,10.8,12.4,,47.59359,-54.27349
2018-03-19 22:40:00+00:00,262.0,259.0,10.57,11.91,,47.59359,-54.27349
2018-03-19 22:50:00+00:00,256.0,249.0,10.81,13.32,,47.59359,-54.27349
2018-03-19 23:00:00+00:00,249.0,242.0,10.81,12.5,,47.59359,-54.27349
2018-03-19 23:10:00+00:00,260.0,259.0,11.28,13.31,,47.59359,-54.27349
2018-03-19 23:20:00+00:00,255.0,251.0,10.5,11.76,,47.59359,-54.27349
2018-03-19 23:30:00+00:00,254.0,244.0,10.77,12.33,,47.59359,-54.27349
2018-03-19 23:40:00+00:00,259.0,263.0,10.32,11.68,,47.59359,-54.27349
2018-03-19 23:50:00+00:00,247.0,248.0,11.98,13.07,,47.59359,-54.27349
